Regional Weather Roundup
Issued by NWS Huntsville, AL

Home | Current Version | Previous Version | Text Only | Print | Product List | Glossary On
Versions: 1 2 3 4 5 6 7 8 9 10 11 12 13 14 15 16 17 18 19 20 21 22 23 24 25 26 27 28 29 30 31 32 33 34 35 36 37 38 39 40 41 42 43 44 45 46 47 48 49 50
000
ASUS44 KHUN 232310
RWRHUN

WEATHER ROUNDUP FOR THE TENNESSEE VALLEY
NATIONAL WEATHER SERVICE HUNTSVILLE AL
600 PM CDT SUN JUL 23 2017

ALZ001>004-240000-
NORTHWEST ALABAMA

CITY           SKY/WX    TMP DP  RH WIND       PRES   REMARKS
COURTLAND HCN    N/A     91 N/A N/A SW10        N/A
RUSSELLVILLE     N/A     88 N/A N/A MISG        N/A
SHOALS AIRPORT FAIR      93  72  50 S13       29.85F HX 101
SHOALS TVA RES   N/A     90 N/A N/A MISG        N/A
$$

ALZ005>007-016-240000-
NORTH CENTRAL ALABAMA

CITY           SKY/WX    TMP DP  RH WIND       PRES   REMARKS
CULLMAN AG STN   N/A     90 N/A N/A SW6         N/A
DECATUR AP     FAIR      85  76  74 SE3       29.86F HX  94
HUNTSVILLE AP  FAIR      92  75  57 SW7       29.86S HX 103
MERIDIANVILLE  FAIR      84  70  61 SE10      29.87F
REDSTONE ARSN  LGT RAIN  86  76  71 S12       29.85F HX  96
VINEMONT AP    FAIR      89  71  55 SW6       29.92S HX  94
$$

ALZ008>010-240000-
NORTHEAST ALABAMA

CITY           SKY/WX    TMP DP  RH WIND       PRES   REMARKS
ALBERTVILLE    PTSUNNY   86  79  79 E6        29.91R HX  99
FORT PAYNE     DRIZZLE   72  68  88 S3        29.91F
SCOTTSBORO HCN   N/A     72 N/A N/A MISG        N/A
$$

TNZ076-096-097-240000-
SOUTHEASTERN MIDDLE TENNESSEE

CITY           SKY/WX    TMP DP  RH WIND       PRES   REMARKS
TULLAHOMA        N/A     84  72  65 S8        29.88F
WINCHESTER     MOSUNNY   84  73  70 S6        29.88S HX  91
$$

...SURROUNDING SITES...

CITY           SKY/WX    TMP DP  RH WIND       PRES   REMARKS
ATLANTA        PTSUNNY   88  73  61 W14       29.90R HX  95
ANNISTON       PTSUNNY   90  73  57 SW12      29.89S HX  98
BIRMINGHAM     LGT RAIN  80  74  81 W16       29.93R
CHATTANOOGA    PTSUNNY   86  74  67 NW6       29.87S HX  94
CORINTH        FAIR      82  73  74 W6        29.83F
DALTON         NOT AVBL
GADSDEN        FAIR      91  74  57 W7        29.89R HX 100
GOLDEN TRNGL   MOSUNNY   90  72  55 S9        29.84F HX  96
JACKSON TN     FAIR      92  75  57 W3        29.82S HX 103
MEMPHIS        PTSUNNY   88  72  58 N9        29.83F THUNDER HX  94
NASHVILLE      PTSUNNY   90  74  59 W14       29.82F HX  99
OXFORD MS      FAIR      91  72  52 S9        29.86F HX  98
ROME           FAIR      80  75  84 SW3       29.88S
SAVANNAH       SUNNY     84  77  79 S6        29.82F HX  94
SELMER         SUNNY     86  75  70 CALM      29.84S HX  95
TUPELO         FAIR      92  70  48 S6        29.85S HX  97
TUSCALOOSA     FAIR      90  74  59 SW7       29.87F HX  99
$$

...GULF COAST WEATHER...

CITY           SKY/WX    TMP DP  RH WIND       PRES   REMARKS
GULFPORT       FAIR      83  77  82 NW6       29.91F HX  92
PASCAGOULA     FAIR      86  73  65 VRB6      29.92S HX  93
MOBILE         FAIR      84  75  74 SW10      29.94S HX  92
GULF SHORES    FAIR      83  75  74 MISG      29.92F HX  91
PENSACOLA      PTSUNNY   84  73  69 SW16G22   29.92F HX  90
DESTIN         FAIR      89  71  55 W10G20    29.92F HX  95
PANAMA CITY    FAIR      85  73  66 SW15      29.94F HX  92
APPALACHICOLA  FAIR      84  78  82 SW10      29.95F HX  95
$$




USA.gov is the U.S. government's official web portal to all federal, state and local government web resources and services.